This is the latest recevied weather packets stored in our database for station/object VE3MNX. If no packets are shown the sender has not sent any weather packets the latest 10 day(s).
| Time | Temp. | Humidity | Pressure | Rain* | Wind** | Luminosity | Snow |
|---|---|---|---|---|---|---|---|
| 1778131396 | 7.78° C | 87% | 1011.9 hPa | 0 mm | - | - | - |
| 1778130496 | 7.78° C | 85% | 1011.9 hPa | 0 mm | - | - | - |
| 1778129598 | 7.78° C | 86% | 1011.9 hPa | 0 mm | - | - | - |
| 1778128696 | 7.78° C | 87% | 1011.9 hPa | 0 mm | - | - | - |
| 1778127798 | 7.78° C | 86% | 1012.2 hPa | 0 mm | - | - | - |
| 1778126896 | 7.78° C | 86% | 1012.2 hPa | 0 mm | - | - | - |
| 1778125999 | 7.78° C | 84% | 1012.2 hPa | 0 mm | - | - | - |
| 1778125097 | 7.78° C | 85% | 1012.5 hPa | 0 mm | - | - | - |
| 1778124199 | 7.78° C | 86% | 1012.5 hPa | 0 mm | - | - | - |
| 1778123296 | 7.78° C | 86% | 1012.5 hPa | 0 mm | - | - | - |
| 1778122398 | 7.78° C | 85% | 1012.8 hPa | 0 mm | - | - | - |
| 1778121496 | 7.78° C | 85% | 1012.5 hPa | 0 mm | - | - | - |
| 1778120597 | 7.78° C | 85% | 1012.5 hPa | 0 mm | - | - | - |
| 1778119696 | 7.78° C | 85% | 1012.2 hPa | 0 mm | - | - | - |
| 1778118796 | 8.33° C | 81% | 1012.5 hPa | 0 mm | - | - | - |
| 1778117896 | 7.78° C | 80% | 1012.2 hPa | 0 mm | - | - | - |
| 1778116998 | 7.78° C | 82% | 1011.9 hPa | 0 mm | - | - | - |
| 1778116097 | 8.33° C | 81% | 1012.2 hPa | 0 mm | - | - | - |
| 1778115198 | 7.78° C | 79% | 1012.2 hPa | 0 mm | - | - | - |
| 1778114296 | 7.78° C | 79% | 1012.2 hPa | 0 mm | - | - | - |
| 1778113456 | 7.78° C | 81% | 1012.5 hPa | 0 mm | - | - | - |
| 1778112555 | 8.33° C | 80% | 1011.9 hPa | 0 mm | - | - | - |
| 1778111598 | 8.33° C | 80% | 1011.9 hPa | 0 mm | - | - | - |
| 1778110697 | 8.33° C | 82% | 1011.9 hPa | 0 mm | - | - | - |
| 1778109796 | 8.33° C | 78% | 1011.9 hPa | 0 mm | - | - | - |
* Rain latest hour (hover to see other rain measurements)
** Current wind speed in m/s (hover to see current wind gust speed)